DELTA 1 DEB, 42588

Orbit data source: Space-Track

DELTA 1 DEB, 42588 is space debris in SSO originally from a launch on Tue, 06 Nov 1973 UTC launched from the Air Force Western Test Range (AFWTR). Debris objects in space refer to the collection of defunct objects orbiting the Earth. Examples of debris include non-operational satellites, rocket bodies, and fragments generated from explosions, collisions, or faulty payload assembly.

Loading next visibility...
Identifier
42588, 1973-086JC
Orbit
SSO
Country
Flag of USUS
Related business
Manufacturer
Unknown
Mission
Spacecraft
Bus & Motor
Unknown
Mass
Unknown
Launch date (UTC)
1973-11-06 (52 years ago)
Launch vehicle
Unknown
Launch site
Air Force Western Test Range (AFWTR)
Object type
Payload
Rocket body
Debris
Shape & HBR
Unknown shape, 0.1 m
Radar Cross Section
Small (<0.1 m²)

Expand to show TLE details & history
Last TLE update: 2 months ago

TLE from 2 months ago
0 DELTA 1 DEB
1 42588U 73086JC  25290.22786838  .00000009  00000-0  43132-3 0  9998
2 42588 102.4424 285.3238 0067582  58.1541 315.3197 12.36007426537172
Epoch: 2025-10-17T05:28Z
TLE epoch observation values (Epoch: 2025-10-17T05:28:07.828Z)
Latitude
12.58416°
Longitude
174.50554°
Altitude
1,487.559 km
Speed
7.138 km/s
True Right ascension
18h 50m 03s
True Declination
12° 31' 05"
Sunlit
Object was in daylight at epoch
Visualization orbit readout
Latitude
Unknown
Longitude
Unknown
Altitude
Unknown
Speed
Unknown
Apparent Right ascension
Unknown
Apparent Declination
Unknown
Sunlit
N/A
Visualization observer readout
Local Sidereal Time
03:42:56
Azimuth
Unknown
Elevation
Unknown
Doppler factor
Unknown
Orbital elements
Apogee altitude
1,574.565 km
Perigee altitude
1,467.795 km
Semi-major axis
7,899.317 km
Eccentricity
0.00676
Inclination
102.4424°
RAAN
285.3238°
Arg. of periapsis
58.1541°
True anomaly
314.77188°
Mean anomaly
315.3197°
Eccentric anomaly
315.04612°
Mean motion
3.09143 °/min
Orbital period
116.45 mins
BSTAR
0.00043132
Loading maneuver chart data...
Computing Atmospheric mass density...
Loading historical data...
Loading historical data...
Loading historical data...
Loading historical data...
Loading historical data...
Loading historical data...
Loading historical data...

Documentation

Showing up to 5 results
|